[[{"header":{"parameterUnit":"m.s-1","parameterCategory":1,"la1":30.2991,"la2":30.254,"lo1":-89.0895,"lo2":-89.0444,"dy":0.0017,"dx":0.0017,"nx":28,"ny":28,"refTime":"2025-04-12T03:00:00:Z","depth":0,"parameterNumber":2,"parameterNumberName":"U-component_of_WINDS"},"data":[0,0,0,0,0,0,0,0,0,0,0,0,0,0,0,0,0,0,0,0,0,0,0,0,0,0,0,0,0,0,0,0,0,0,0,0,0,0,0,0,0,0,0,0,0,0,0,0,0,0,0,0,0,0,0,0,0,0,-0.4259,-0.4258,0,-0.4165,-0.4164,-0.4163,-0.412,-0.412,-0.4121,-0.4121,-0.4026,-0.4023,-0.4021,0,0,0,0,0,0,0,0,0,0,0,0,0,-0.4403,-0.44,-0.4259,-0.4257,-0.4256,-0.4165,-0.4164,-0.4162,-0.412,-0.412,-0.4121,-0.4121,-0.4027,-0.4024,-0.402,0,0,0,0,0,0,0,0,0,0,0,0,0,-0.4328,-0.44,-0.4259,-0.4224,-0.422,-0.4165,-0.4164,-0.4162,-0.412,-0.4121,-0.4121,-0.4121,-0.4028,-0.4024,-0.402,-0.3993,0,0,-0.4008,-0.4006,0,0,0,0,0,0,0,0,-0.4332,-0.4323,-0.4231,-0.4227,-0.4222,-0.4154,-0.418,-0.4105,-0.412,-0.4158,-0.4121,-0.4121,-0.4069,-0.4061,-0.4043,-0.3988,-0.3984,-0.4008,-0.4005,-0.4004,-0.4002,0,0,0,0,0,0,0,-0.4337,-0.4326,-0.4222,-0.4229,-0.4224,-0.4214,-0.4203,-0.4165,-0.4114,-0.4155,-0.4152,-0.4141,-0.4066,-0.4047,-0.4041,-0.3983,-0.4008,-0.4004,-0.4002,-0.4,-0.3901,-0.39,0,0,0,0,0,0,-0.4348,-0.4331,-0.4225,-0.4219,-0.4278,-0.4211,-0.4199,-0.4176,-0.4114,-0.4105,-0.4141,-0.414,-0.4054,-0.4045,-0.4037,-0.4001,-0.4004,-0.4,-0.3998,-0.3901,-0.39,-0.39,0,0,0,0,0,0,-0.4351,-0.4339,-0.4228,-0.4274,-0.4259,-0.4209,-0.4183,-0.4174,-0.4155,-0.4103,-0.4094,-0.4131,-0.4054,-0.4043,-0.4004,-0.3997,-0.3998,-0.3995,-0.3901,-0.3901,-0.39,-0.3928,0,0,0,0,0,0,-0.4356,-0.434,-0.4329,-0.4274,-0.4257,-0.4196,-0.4182,-0.4172,-0.4148,-0.4145,-0.4092,-0.4083,-0.4053,-0.401,-0.4,-0.3992,-0.3991,-0.3902,-0.3901,-0.39,-0.3928,-0.3929,-0.393,0,0,0,0,0,-0.4361,-0.4341,-0.4329,-0.4316,-0.4242,-0.4196,-0.4186,-0.4152,-0.4148,-0.4136,-0.4103,-0.4085,-0.4,-0.4006,-0.3995,-0.3985,-0.3902,-0.3901,-0.39,-0.3927,-0.3929,-0.393,0,0,0,0,0,0,-0.4397,-0.4333,-0.4319,-0.428,-0.4244,-0.4189,-0.4173,-0.4154,-0.4118,-0.4117,-0.4076,-0.4065,-0.4029,-0.4003,-0.4012,-0.3956,-0.3949,-0.3946,-0.3974,-0.3974,-0.3975,-0.3982,-0.3988,0,0,0,0,0,-0.4401,-0.4368,-0.4315,-0.4286,-0.4268,-0.4224,-0.4203,-0.418,-0.414,-0.4125,-0.4089,-0.4052,-0.4016,-0.3994,-0.3959,-0.3924,-0.3912,-0.3912,-0.3913,-0.3914,-0.3912,-0.3891,-0.3891,-0.3898,-0.3898,-0.3898,0,0,-0.4408,-0.4369,-0.4351,-0.4292,-0.4261,-0.4229,-0.4211,-0.4178,-0.4154,-0.412,-0.408,-0.4053,-0.4009,-0.3972,-0.3954,-0.3949,-0.3907,-0.3913,-0.3915,-0.3911,-0.3891,-0.389,-0.3889,-0.3898,-0.3898,-0.3898,0,0,-0.4404,-0.4371,-0.4344,-0.4313,-0.4266,-0.4236,-0.423,-0.4178,-0.4158,-0.4118,-0.4091,-0.4063,-0.4003,-0.3972,-0.3949,-0.3934,-0.3916,-0.3924,-0.3929,-0.391,-0.3909,-0.3909,-0.3903,-0.3901,-0.3922,-0.3922,-0.3922,0,-0.4419,-0.4369,-0.4332,-0.43,-0.4275,-0.4242,-0.4214,-0.4186,-0.413,-0.4114,-0.411,-0.4034,-0.4002,-0.3958,-0.3954,-0.3936,-0.3928,-0.393,-0.3912,-0.3911,-0.391,-0.3904,-0.3902,-0.3924,-0.3923,-0.3923,-0.3923,0,-0.4389,-0.4355,-0.4338,-0.4284,-0.4257,-0.4228,-0.4187,-0.4165,-0.4144,-0.4115,-0.4075,-0.4036,-0.3992,-0.398,-0.3959,-0.3932,-0.3931,-0.392,-0.3913,-0.3911,-0.3905,-0.3902,-0.3925,-0.3925,-0.3925,-0.3924,0,0,-0.4405,-0.4331,-0.4326,-0.4301,-0.4246,-0.4219,-0.4189,-0.4145,-0.4127,-0.409,-0.4062,-0.4013,-0.4003,-0.3976,-0.3952,-0.3935,-0.3926,-0.3926,-0.3925,-0.3927,-0.3893,-0.3901,-0.3899,-0.3914,-0.3913,-0.3913,-0.3897,0,-0.4393,-0.4335,-0.4301,-0.4257,-0.4225,-0.4194,-0.4167,-0.4131,-0.4104,-0.4073,-0.4043,-0.4008,-0.3997,-0.3981,-0.3963,-0.3931,-0.3918,-0.3932,-0.3888,-0.3887,-0.3899,-0.3896,-0.3904,-0.3891,-0.3894,-0.3894,-0.3893,0,-0.4371,-0.4334,-0.4287,-0.4236,-0.4221,-0.4197,-0.4155,-0.4126,-0.4085,-0.4066,-0.4037,-0.4013,-0.398,-0.3976,-0.3929,-0.3939,-0.3919,-0.3901,-0.3899,-0.3893,-0.389,-0.3889,-0.3886,-0.3884,-0.3889,-0.389,-0.389,0,-0.4387,-0.4325,-0.4289,-0.4268,-0.4208,-0.4192,-0.4167,-0.4126,-0.4102,-0.4065,-0.4049,-0.401,-0.3988,-0.3958,-0.3924,-0.3924,-0.3881,-0.3874,-0.3864,-0.3865,-0.3856,-0.3857,-0.3849,-0.3845,-0.3845,-0.3845,-0.3845,0,-0.4377,-0.4349,-0.4295,-0.4272,-0.424,-0.4202,-0.4172,-0.4144,-0.4108,-0.408,-0.4051,-0.4025,-0.3982,-0.3952,-0.3925,-0.3891,-0.3881,-0.3865,-0.3858,-0.3867,-0.3869,-0.3853,-0.3853,-0.3844,-0.3844,-0.3844,-0.3845,0,-0.4389,-0.4351,-0.4309,-0.4256,-0.4242,-0.422,-0.4175,-0.4152,-0.4124,-0.4088,-0.4078,-0.4033,-0.3996,-0.3959,-0.3909,-0.3891,-0.3856,-0.3848,-0.387,-0.3866,-0.3858,-0.3859,-0.3839,-0.3835,-0.3835,-0.3835,-0.3835,0,-0.4385,-0.4362,-0.4306,-0.4285,-0.426,-0.4226,-0.4201,-0.4163,-0.4139,-0.4091,-0.4074,-0.4034,-0.4,-0.3941,-0.3905,-0.3866,-0.3856,-0.3852,-0.385,-0.386,-0.3855,-0.3857,-0.3854,-0.3853,-0.3853,-0.3853,-0.3853,0,-0.4381,-0.4363,-0.4328,-0.4287,-0.4258,-0.4224,-0.4189,-0.4173,-0.4129,-0.4103,-0.4064,-0.4037,-0.3986,-0.3947,-0.3904,-0.3878,-0.3858,-0.3854,-0.385,-0.3858,-0.3872,-0.3864,-0.3872,-0.3854,-0.3854,-0.3854,-0.3854,-0.3854,-0.4384,-0.4362,-0.4319,-0.4281,-0.4251,-0.4219,-0.4194,-0.4163,-0.4129,-0.4083,-0.4064,-0.4024,-0.3984,-0.3924,-0.3899,-0.3868,-0.3863,-0.3857,-0.3855,-0.3854,-0.3856,-0.3877,-0.386,-0.386,-0.386,-0.386,-0.386,0,-0.4378,-0.4349,-0.4314,-0.4265,-0.4236,-0.4219,-0.418,-0.4156,-0.4121,-0.4085,-0.4052,-0.4007,-0.3969,-0.393,-0.389,-0.3873,-0.3863,-0.3863,-0.3864,-0.3858,-0.3863,-0.387,-0.3872,-0.3872,-0.3872,-0.3872,-0.3872,-0.3872,-0.4371,-0.4334,-0.4311,-0.4259,-0.423,-0.419,-0.4169,-0.4139,-0.411,-0.4061,-0.4029,-0.4003,-0.3966,-0.3923,-0.3888,-0.3877,-0.3864,-0.3867,-0.3854,-0.3859,-0.3858,-0.3857,-0.3864,-0.3864,-0.3864,-0.3852,-0.3851,-0.3851]},{"header":{"parameterUnit":"m.s-1","parameterCategory":1,"la1":30.2991,"la2":30.254,"lo1":-89.0895,"lo2":-89.0444,"dy":0.0017,"dx":0.0017,"nx":28,"ny":28,"refTime":"2025-04-12T03:00:00:Z","depth":0,"parameterNumber":3,"parameterNumberName":"V-component_of_WINDS"},"data":[0,0,0,0,0,0,0,0,0,0,0,0,0,0,0,0,0,0,0,0,0,0,0,0,0,0,0,0,0,0,0,0,0,0,0,0,0,0,0,0,0,0,0,0,0,0,0,0,0,0,0,0,0,0,0,0,0,0,4.8141,4.814,0,4.8088,4.8088,4.8087,4.8043,4.8043,4.8042,4.8042,4.7984,4.7983,4.7982,0,0,0,0,0,0,0,0,0,0,0,0,0,4.82,4.82,4.8141,4.814,4.8139,4.8088,4.8088,4.8087,4.8043,4.8043,4.8042,4.8041,4.7984,4.7983,4.7982,0,0,0,0,0,0,0,0,0,0,0,0,0,4.8164,4.8199,4.8141,4.8112,4.8108,4.8088,4.8088,4.8087,4.8043,4.8043,4.8042,4.8041,4.7985,4.7983,4.7982,4.7985,0,0,4.7977,4.7976,0,0,0,0,0,0,0,0,4.8166,4.8162,4.8116,4.8114,4.811,4.8072,4.8087,4.8052,4.8043,4.8068,4.8042,4.8041,4.8013,4.8009,4.8001,4.7983,4.798,4.7976,4.7975,4.7975,4.7974,0,0,0,0,0,0,0,4.8168,4.8164,4.812,4.8116,4.8112,4.81,4.8094,4.8081,4.8045,4.8066,4.8062,4.8057,4.8011,4.8003,4.7999,4.7979,4.7976,4.7975,4.7974,4.7973,4.7962,4.7963,0,0,0,0,0,0,4.8176,4.8166,4.8121,4.8118,4.8137,4.81,4.8093,4.8085,4.8045,4.8039,4.8058,4.8055,4.8006,4.8001,4.7997,4.8,4.7975,4.7973,4.7972,4.7962,4.7963,4.7963,0,0,0,0,0,0,4.8177,4.8172,4.8124,4.8141,4.8134,4.8099,4.809,4.8084,4.8075,4.8039,4.8032,4.8055,4.8005,4.7999,4.7989,4.7997,4.7972,4.7971,4.7961,4.7962,4.7963,4.8005,0,0,0,0,0,0,4.8179,4.8173,4.8175,4.8142,4.8133,4.8117,4.8091,4.8083,4.8073,4.8069,4.8035,4.8029,4.8004,4.7992,4.7987,4.7994,4.797,4.796,4.7961,4.7963,4.8002,4.8007,4.8011,0,0,0,0,0,4.8182,4.8187,4.8175,4.817,4.8135,4.8118,4.8113,4.8086,4.8074,4.8075,4.8052,4.803,4.7997,4.7991,4.7986,4.7992,4.7959,4.7961,4.7962,4.8,4.8006,4.8011,0,0,0,0,0,0,4.8221,4.8183,4.8168,4.8164,4.8145,4.8111,4.8111,4.8092,4.8075,4.8072,4.8038,4.803,4.8024,4.8007,4.8001,4.7994,4.7975,4.7976,4.8006,4.8011,4.8015,4.802,4.7968,0,0,0,0,0,4.8229,4.822,4.8186,4.8185,4.8177,4.8146,4.8137,4.8118,4.8096,4.8088,4.8064,4.8043,4.8028,4.8018,4.8002,4.8,4.7992,4.8002,4.8006,4.801,4.8011,4.8009,4.8013,4.7968,4.7968,4.7968,0,0,4.8246,4.8224,4.8219,4.8193,4.8176,4.8166,4.8139,4.813,4.8122,4.8086,4.8075,4.8057,4.8031,4.8025,4.8021,4.8011,4.8021,4.8012,4.8015,4.8014,4.8011,4.8015,4.8019,4.797,4.7969,4.7969,0,0,4.8271,4.8254,4.8252,4.8236,4.8211,4.8191,4.819,4.8159,4.8147,4.8136,4.8109,4.8099,4.8073,4.8056,4.8044,4.8066,4.8045,4.8061,4.8083,4.8082,4.8086,4.8089,4.8097,4.8101,4.8062,4.8062,4.8062,0,4.8295,4.828,4.8253,4.8246,4.8235,4.8204,4.8201,4.8186,4.8157,4.815,4.8139,4.8108,4.8088,4.8078,4.8084,4.8075,4.8073,4.8065,4.8088,4.809,4.8093,4.81,4.8104,4.8064,4.8064,4.8064,4.8064,0,4.8311,4.8301,4.8303,4.8278,4.8267,4.8262,4.8233,4.8225,4.8208,4.8188,4.8178,4.8153,4.8133,4.8129,4.811,4.8117,4.8111,4.8094,4.8074,4.81,4.8106,4.8109,4.8068,4.8067,4.8066,4.8066,0,0,4.8359,4.832,4.8321,4.831,4.8281,4.8272,4.8266,4.8248,4.8242,4.8223,4.8217,4.8197,4.8182,4.8169,4.8148,4.8147,4.8167,4.813,4.8129,4.8139,4.8173,4.8187,4.8191,4.8153,4.8154,4.8154,4.8176,0,4.8381,4.837,4.8345,4.8341,4.8333,4.8303,4.8298,4.8279,4.8261,4.825,4.823,4.8217,4.8197,4.8189,4.8187,4.8165,4.8173,4.8163,4.8147,4.8147,4.8155,4.8194,4.8207,4.8229,4.8178,4.8179,4.8179,0,4.8404,4.8389,4.8385,4.8358,4.8353,4.8349,4.8331,4.8321,4.83,4.8286,4.8273,4.8251,4.8242,4.8224,4.8213,4.8206,4.8198,4.8186,4.8186,4.8184,4.8165,4.8193,4.8236,4.8239,4.8182,4.8182,4.8182,0,4.8441,4.8419,4.8415,4.8406,4.8374,4.8372,4.8358,4.8336,4.8327,4.831,4.8304,4.8286,4.8277,4.8263,4.8237,4.8226,4.8228,4.8208,4.8217,4.8218,4.8219,4.8219,4.8261,4.8213,4.8213,4.8213,4.8213,0,4.8468,4.8466,4.8431,4.8428,4.8426,4.8398,4.8396,4.838,4.8361,4.8354,4.8326,4.832,4.8285,4.8275,4.8254,4.8248,4.8244,4.8233,4.8227,4.8236,4.8237,4.823,4.8228,4.8214,4.8214,4.8213,4.8213,0,4.8508,4.8484,4.8477,4.8449,4.8441,4.8441,4.8416,4.8412,4.8393,4.8384,4.8381,4.8351,4.8337,4.831,4.8288,4.8274,4.8273,4.8263,4.8281,4.8278,4.8289,4.8289,4.8329,4.8333,4.8282,4.8282,4.8283,0,4.8527,4.8526,4.8498,4.8492,4.848,4.8471,4.8462,4.8434,4.8426,4.8402,4.8401,4.8386,4.8372,4.8352,4.8328,4.8311,4.8301,4.8316,4.8298,4.8307,4.8302,4.8303,4.8303,4.832,4.8321,4.8321,4.8322,0,4.8564,4.8553,4.8542,4.8527,4.8518,4.8504,4.8489,4.8486,4.8454,4.8446,4.8433,4.8423,4.8402,4.8388,4.8368,4.8353,4.8332,4.8328,4.8329,4.8338,4.8349,4.8344,4.8293,4.8327,4.8326,4.8326,4.8326,4.8326,4.8595,4.8593,4.8573,4.8562,4.8549,4.8536,4.8531,4.8512,4.8501,4.8484,4.8467,4.8456,4.8435,4.8407,4.8393,4.8384,4.8373,4.8375,4.8376,4.8377,4.8381,4.835,4.838,4.838,4.8379,4.8379,4.8379,0,4.8631,4.8617,4.8608,4.8589,4.858,4.8563,4.8546,4.8539,4.853,4.8513,4.8501,4.8487,4.8473,4.8448,4.8432,4.8429,4.8419,4.8426,4.8426,4.8423,4.839,4.8391,4.8434,4.8434,4.8434,4.8434,4.8434,4.8434,4.8649,4.8645,4.8632,4.8621,4.8607,4.8597,4.8589,4.8577,4.8564,4.8549,4.8538,4.8523,4.8502,4.8485,4.8472,4.8464,4.846,4.847,4.846,4.843,4.8425,4.842,4.8421,4.8469,4.8469,4.8493,4.8493,4.8494]}]]